Location: Blikhalm
(51.4500°N, 5.7000°E)
Time: 05:54:57
(UTC+00:00)

Daily predictions for brighter satellites

Satellite Brightness Start Highest point End
(mag) Time Altitude Azimuth Time Altitude Azimuth Time Altitude Azimuth
Cosmos 1908 Rocket 4.4 00:00:17 10° NNW 00:04:24 36° W 00:05:05 34° WSW
Thor Agena Rocket 3.7 00:01:15 10° NNE 00:06:27 68° WNW 00:08:23 39° SW
Cosmos 1937 Rocket 4.5 00:04:14 23° WSW 00:06:59 40° NW 00:11:53 10° NNE
Cosmos 1818 4.4 00:03:06 10° NW 00:07:54 31° WSW 00:08:17 31° SW
Cosmos 1821 Rocket 4.2 00:02:01 10° NNW 00:08:21 64° W 00:10:54 37° SSW
YAOGAN 11 4.3 00:07:03 40° SE 00:08:25 62° ENE 00:12:41 10° N
Meteor 1-15 Rocket 4.3 00:03:14 10° N 00:08:55 75° ENE 00:11:29 34° SSE
Cosmos 2344 4.2 00:00:23 10° NW 00:09:21 85° SW 00:21:55 10° SE
Cosmos 1300 Rocket 3.6 00:06:17 10° N 00:10:44 73° E 00:11:53 47° SSE
EO 1 Delta rocket 4.0 00:09:20 44° S 00:11:01 85° W 00:16:54 10° N
ERBS 4.4 00:08:50 10° WNW 00:09:49 17° WNW 00:09:49 17° WNW
Cosmos 1934 Rocket 3.9 00:08:21 10° N 00:14:34 87° E 00:17:19 35° S
Cosmos 1048 Rocket 4.2 00:09:24 10° NNW 00:14:38 56° WSW 00:15:59 43° SSW
SL-16 R/B 3.6 00:09:28 10° SE 00:15:13 42° ENE 00:21:04 10° N
Resurs 1-4 Rocket 3.8 00:11:23 10° NE 00:15:32 23° E 00:18:10 16° SE
Cosmos 2298 Rocket 4.0 00:15:04 44° SSW 00:16:47 81° ESE 00:22:07 10° NNE
Cosmos 1356 Rocket 3.5 00:12:54 10° NNW 00:17:08 65° W 00:17:48 56° SW
Gbstr 26 Del rocket 4.1 00:14:50 10° WNW 00:21:15 44° SW 00:22:28 39° S
NOSS 2-1 (C) 4.2 00:17:43 10° NW 00:22:16 74° NE 00:28:40 10° SE
CZ-4 R/B 4.2 00:21:49 10° NNE 00:26:39 55° E 00:28:15 37° SSE
USA 281 3.2 00:23:02 21° SSE 00:27:38 85° ENE 00:34:15 10° NNW
NOSS 2-1 (D) 4.1 00:24:28 10° NW 00:29:02 80° NE 00:35:31 10° SE
COSMOS 2487 3.2 00:27:31 10° NNW 00:30:50 46° ENE 00:31:48 35° ESE
COSMOS 2455 3.9 00:25:03 10° NNW 00:30:50 45° NE 00:36:35 10° ESE
SL-24 R/B 4.1 00:29:49 44° S 00:31:16 79° WSW 00:35:37 10° NNW
Cosmos 1461 3.3 00:29:47 36° WSW 00:31:38 68° NW 00:36:14 10° NE
Cosmos 1535 Rocket 4.4 00:26:36 10° NNW 00:32:49 78° W 00:35:44 34° S
Cosmos 2221 Rocket 3.6 00:37:15 45° S 00:38:37 77° E 00:43:13 10° NNE
Cosmos 1378 3.7 00:39:12 40° W 00:39:41 43° WNW 00:43:15 10° N
RESURS DK-1 3.3 00:42:12 10° NW 00:45:44 32° WSW 00:45:44 32° WSW
Cosmos 44 Rocket 3.3 00:40:52 10° NW 00:46:09 80° SW 00:49:28 22° SSE
SL-27 R/B 3.8 00:44:39 10° NW 00:46:46 25° WNW 00:46:46 25° WNW
Cosmos 2150 Rocket 4.2 00:45:15 34° SW 00:47:34 66° WNW 00:52:52 10° NNE
Cosmos 2369 Rocket 2.8 00:45:13 25° WSW 00:48:20 51° NW 00:53:51 10° NNE
Cosmos 1805 3.6 00:45:37 10° NNW 00:49:22 45° W 00:49:47 44° WSW
Cosmos 1733 3.3 00:47:32 10° NNW 00:51:14 52° W 00:51:38 49° WSW
Lacrosse 5 3.4 00:50:13 20° SE 00:51:15 21° SE 00:55:03 10° ENE
Cosmos 1726 3.2 00:48:35 10° N 00:52:09 41° ENE 00:53:55 24° SE
Cosmos 1766 3.4 00:51:47 10° NNW 00:55:42 57° W 00:56:24 48° SW
Cosmos 1943 Rocket 3.7 00:53:23 12° W 00:57:53 30° NW 01:02:47 10° NNE
Helios 1B rocket 3.4 00:54:26 10° NNE 00:58:21 38° E 01:00:03 26° SSE
Cosmos 1758 4.4 00:57:08 10° N 01:01:03 42° ENE 01:03:47 18° SE
Cosmos 1867 3.6 00:59:35 30° SW 01:02:22 77° NW 01:07:53 10° NE
UNK 4.0 01:00:00 23° SSE 01:02:49 68° ENE 01:07:24 10° N
Cosmos 1378 Rocket 3.7 01:01:32 35° SSE 01:03:13 64° E 01:07:31 10° NNE
Cosmos 1607 4.1 01:03:31 25° SW 01:07:28 76° NW 01:14:00 10° NE
Helios 1A 3.6 01:08:14 34° WSW 01:08:56 37° W 01:12:49 10° NNW
Cosmos 1315 Rocket 4.1 01:06:04 10° N 01:09:47 37° ENE 01:13:10 12° SE
ATLAS CENTAUR R/B 1.0 01:09:09 49° SW 01:10:06 88° NW 01:13:57 10° NE
Cosmos 1400 Rocket 2.8 01:06:18 10° NNW 01:10:27 77° W 01:11:54 39° S
Okean 1 Rocket 3.0 01:09:00 10° N 01:13:27 87° WSW 01:15:30 31° S
Cosmos 1605 Rocket 4.2 01:07:30 10° NNW 01:13:35 57° W 01:16:50 28° SSW
SeaSat 1 3.7 01:10:17 10° NNE 01:14:44 34° NW 01:18:05 16° WSW
Meteor 2-20 4.5 01:12:44 26° S 01:16:22 83° E 01:22:34 10° NNE
Cosmos 1470 2.6 01:13:44 10° N 01:17:39 89° WSW 01:19:17 34° S
NPP 4.1 01:12:34 10° NNE 01:17:54 56° E 01:21:14 23° S
Cosmos 1459 Rocket 4.3 01:12:29 10° N 01:18:48 68° ENE 01:24:35 12° SSE
Cosmos 1125 Rocket 4.1 01:16:06 25° WSW 01:18:50 48° WNW 01:23:55 10° NNE
Cosmos 1656 Rocket 4.4 01:20:25 20° WSW 01:23:49 43° NW 01:29:07 10° NNE
Aureole 2 4.5 01:22:28 10° NW 01:25:08 44° W 01:25:08 44° W
NOSS 2-1 (E) 4.3 01:21:32 10° NW 01:26:21 54° SW 01:33:05 10° SSE
Cosmos 2173 Rocket 4.1 01:22:14 10° N 01:28:25 79° E 01:34:01 13° SSE
Cosmos 1674 Rocket 3.7 01:27:05 33° SSW 01:28:58 63° WNW 01:33:25 10° N
CZ-2D R/B 2.2 01:26:28 10° NNE 01:31:57 85° ESE 01:35:15 25° SSW
Cosmos 2227 Rocket 2.8 01:26:41 10° NNW 01:32:18 58° NE 01:37:51 10° SE
Landsat 4 4.3 01:30:11 10° NNE 01:33:51 49° E 01:35:49 24° SSE
Cosmos 2297 Rocket 2.4 01:30:18 10° NNW 01:36:01 75° ENE 01:41:41 10° SE
Okean 2 Rocket 4.5 01:33:23 10° NW 01:36:48 22° W 01:37:51 20° WSW
ISS -3.8 01:36:22 27° W 01:38:04 90° NW 01:41:28 10° E
Cosmos 1842 3.7 01:37:35 32° SW 01:39:00 47° WNW 01:42:47 10° N
IDEFIX/ARIANE 42P 4.1 01:38:01 10° NNE 01:42:39 30° E 01:47:16 10° SSE
Cosmos 1802 Rocket 4.0 01:37:58 10° N 01:44:10 82° E 01:50:19 10° SSE
Meteor 2-10 4.5 01:41:14 10° NNW 01:46:27 46° W 01:49:24 23° SSW
Cosmos 2100 Rocket 4.0 01:42:35 10° NNW 01:48:51 73° W 01:54:15 15° S
ADEOS Rocket 3.7 01:42:53 10° SSE 01:50:15 77° ENE 01:58:04 10° NNW
SL-19 R/B 4.3 01:46:11 10° NNE 01:52:01 88° ESE 01:56:00 20° SSW
ADEOS II 2.4 01:47:03 10° NNE 01:52:18 64° ESE 01:56:31 16° S
Cosmos 2251 Rocket 3.4 01:50:20 10° NNW 01:55:37 82° WSW 02:00:51 10° SSE
Resurs 1-4 Rocket 2.2 01:50:35 10° N 01:55:47 63° WNW 01:59:15 21° SW
Meteor 1-29 2.8 01:52:59 10° NNE 01:56:23 86° ESE 01:58:10 26° SSW
Cosmos 1455 Rocket 3.0 01:52:26 10° N 01:56:48 86° E 02:00:50 12° S
USA 276 3.9 01:57:32 18° SSE 01:58:03 19° SSE 02:00:23 10° E
SL-16 R/B 2.9 01:54:34 19° SSW 01:58:49 45° W 02:04:50 10° NNW
In-Cosmos 22 4.3 01:55:18 16° S 01:59:50 78° E 02:05:23 10° NNE
IRS-1D 4.0 01:54:59 10° NNE 02:00:17 62° ESE 02:04:59 13° S
DELTA 2 DEB (DPAF) 4.1 01:56:55 13° S 02:00:53 76° WSW 02:05:22 10° NNW
Meteor 2-11 Rocket 4.4 01:54:44 10° NNW 02:00:56 81° W 02:07:05 10° S
Cosmos 2123 Rocket 4.3 01:55:50 11° S 02:01:42 66° E 02:07:52 10° NNE
Cosmos 1953 2.3 02:00:48 10° N 02:04:47 88° ENE 02:08:36 11° S
Cosmos 1674 3.1 02:02:22 16° S 02:05:19 60° E 02:09:08 10° NNE
COSMOS 2487 4.3 02:03:19 10° WNW 02:05:05 15° W 02:05:05 15° W
Cosmos 2219 3.2 02:06:14 10° NNW 02:11:56 73° WSW 02:17:38 10° SSE
USA 281 4.3 02:09:53 17° SW 02:12:52 23° W 02:17:59 10° NW
KORONAS-FOTON 4.0 02:10:13 16° S 02:13:19 74° E 02:17:16 10° NNE
IKONOS-2 4.5 02:11:05 10° SSE 02:15:21 84° WSW 02:19:40 10° NNW
COSMOS 2455 3.0 02:11:06 10° NW 02:16:54 50° WSW 02:22:40 10° S
Cosmos 1707 3.4 02:17:33 20° SW 02:19:46 39° WNW 02:23:25 10° N
Cosmos 1300 4.1 02:17:56 10° N 02:21:34 39° ENE 02:25:09 10° SE
CZ-3B R/B 3.6 02:05:32 10° WSW 02:24:00 81° SSE 02:28:19 10° ENE
Cosmos 1656 3.8 02:21:09 14° SSW 02:25:48 74° ESE 02:31:20 10° NNE
SL-08 R/B 3.9 02:21:21 10° SSE 02:25:58 60° ENE 02:30:35 10° N
Timation 1 Rocket 4.3 02:20:57 10° NNW 02:26:58 85° WSW 02:32:57 10° SSE
Cosmos 1726 3.8 02:24:25 10° NW 02:27:00 18° W 02:28:21 15° WSW
Cosmos 1975 Rocket 3.3 02:28:12 16° SSW 02:31:36 55° WNW 02:35:54 10° N
Helios 1B rocket 3.8 02:29:58 10° N 02:33:27 27° WNW 02:36:21 13° WSW
Lacrosse 5 1.9 02:29:24 15° SW 02:33:37 79° SE 02:38:43 10° ENE
Cosmos 2369 Rocket 4.4 02:30:11 10° WNW 02:33:45 17° NNW 02:37:21 10° NNE
Cosmos 1908 3.4 02:30:41 10° NNW 02:34:28 52° W 02:38:15 10° S
CZ-4C R/B 3.7 02:32:08 10° S 02:36:25 55° WSW 02:40:35 10° NNW
Cosmos 2263 Rocket 3.8 02:31:38 10° NNW 02:36:56 39° NE 02:42:13 10° ESE
ARIANE 5 R/B 3.3 02:32:23 10° NNE 02:37:28 51° E 02:42:26 10° S
Cosmos 1140 Rocket 3.6 02:32:19 10° NNW 02:37:34 85° ENE 02:42:48 10° SSE
Spot 1 4.5 02:37:18 10° S 02:41:47 54° W 02:46:35 10° NNW
Cosmos 1190 Rocket 4.1 02:37:29 10° NNW 02:42:44 81° ENE 02:47:58 10° SSE
Cosmos 1626 2.1 02:41:44 10° S 02:45:25 88° W 02:49:08 10° N
TSX-5 3.8 02:42:17 10° NW 02:45:26 42° WSW 02:49:04 10° S
ARGOS Delta rocket 4.5 02:41:46 10° N 02:45:56 38° WNW 02:49:58 12° SW
Cosmos 1315 Rocket 4.1 02:43:00 10° NW 02:46:09 23° W 02:48:49 12° SW
Cosmos 614 Rocket 4.4 02:42:48 10° NW 02:47:34 41° WSW 02:52:21 10° S
Cosmos 1725 Rocket 4.3 02:41:37 10° NNW 02:47:41 51° W 02:53:39 10° SSW
APEX 3.6 02:44:58 10° NW 02:49:03 74° WSW 02:54:10 10° SSE
ATLAS CENTAUR R/B 3.3 02:46:38 10° WNW 02:49:31 20° NNW 02:52:31 10° NNE
Cosmos 2061 Rocket 4.4 02:45:56 10° NNW 02:51:52 45° W 02:57:50 10° SSW
Timation 2 Rocket 4.3 02:46:49 10° NW 02:52:22 41° WSW 02:57:55 10° S
Iridium 2 3.7 02:49:47 10° S 02:53:35 87° E 02:57:25 10° N
Cosmos 371 Rocket 3.5 02:51:16 11° SW 02:55:58 65° WNW 03:00:51 10° NNE
Lacrosse 4 Rocket 2.9 02:52:24 10° S 02:56:28 36° ESE 03:00:32 10° NE
Meteor 1-28 Rocket 4.3 02:54:17 10° SSW 02:57:24 25° W 03:00:33 10° NW
Cosmos 332 Rocket 3.9 02:53:49 10° SSW 02:58:43 90° W 03:03:38 10° NNE
SL-14 R/B 3.3 02:56:01 10° S 02:59:54 89° E 03:03:53 10° N
Cosmos 1697 Rocket 2.9 02:56:23 10° SSW 03:01:59 75° ESE 03:07:36 10° NNE
CBERS-1 4.3 02:57:52 10° N 03:02:50 53° WNW 03:07:47 10° SW
Cosmos 2233 Rocket 4.1 02:57:12 10° NNW 03:03:19 59° W 03:09:21 10° S
Cosmos 676 Rocket 4.2 03:00:00 10° NNW 03:05:16 78° ENE 03:10:33 10° SSE
IRS-P3 4.2 03:02:34 10° NNE 03:07:56 77° WNW 03:13:15 10° SSW
Cosmos 407 Rocket 3.8 03:05:06 10° NNW 03:10:15 50° WSW 03:15:24 10° S
CZ-2C R/B 3.5 03:06:02 10° NNE 03:10:56 47° E 03:15:54 10° S
CZ-2D R/B 3.8 03:07:27 10° N 03:11:22 21° NW 03:15:16 10° W
Cosmos 1340 3.3 03:07:54 10° S 03:11:35 57° E 03:15:17 10° NNE
Meteor 2-10 Rocket 4.1 03:05:53 10° N 03:11:44 72° ENE 03:17:22 10° SSE
Cosmos 1980 Rocket 3.0 03:06:46 10° S 03:12:15 51° ESE 03:17:44 10° NE
Cosmos 2285 Rocket 4.5 03:06:52 10° S 03:13:11 66° ESE 03:19:34 10° NNE
ISS -3.8 03:11:31 10° W 03:14:54 79° SSW 03:18:18 10° ESE
Cosmos 1624 Rocket 4.4 03:09:55 10° SSW 03:15:11 68° ESE 03:20:31 10° NNE
CZ-2D R/B 3.7 03:11:36 10° NNE 03:15:59 83° ESE 03:20:24 10° SSW
Cosmos 2227 Rocket 3.0 03:11:13 10° NW 03:16:03 30° WSW 03:20:51 10° SSW
Cosmos 1025 Rocket 3.7 03:12:10 10° SW 03:16:13 38° WNW 03:20:19 10° N
